Weather observations for the past three days for
Racine, Batten International Airport
Imperial (Metric)
Date Time (cdt) Wind (mph) Vis. (mi.) Weather Sky Cond. Temperature (ºF) Relative Humidity Wind Chill (°F) Heat Index (°F) Pressure Precipitation (in)
Air Dwpt 6 hour altimeter (in) sea level (mb) 1 hr 3 hr 6 hr
Max. Min.
19 03:53 SW 5 10.00 Fair CLR 61 54 78% 30.19 1022.2
19 02:53 SW 5 10.00 Fair CLR 60.1 54 80% 30.19 1022.2
19 01:53 SW 5 10.00 Fair CLR 62.1 54 75% 30.19 1022.2
19 00:53 SW 5 10.00 Fair CLR 63 54 71.1 61 73% 30.2 1022.4
18 23:53 SW 3 10.00 Fair CLR 62.1 54 75% 30.2 1022.4
18 22:53 Calm 10.00 Fair CLR 64 55 73% 30.2 1022.4
18 21:53 Calm 10.00 Fair CLR 66 55 68% 30.19 1022.2
18 20:53 S 5 10.00 Fair CLR 68 54 61% 30.19 1022.0
18 19:53 S 7 10.00 Fair CLR 69.1 53.1 57% 30.19 1022.0
18 18:53 SE 7 10.00 Fair CLR 71.1 53.1 73 71.1 53% 30.19 1022.3
18 17:53 E 8 10.00 Fair CLR 72 54 53% 30.2 1022.3
18 16:53 SE 8 10.00 Fair CLR 72 55 55% 30.21 1022.7
18 15:53 E 9 10.00 Fair CLR 73 55 53% 30.22 1023.0
18 14:53 Vrbl 3 10.00 Fair CLR 72 54 53% 30.22 1023.0
18 13:53 E 9 10.00 Fair CLR 73 55 53% 30.23 1023.3
18 12:53 NE 7 10.00 Fair CLR 72 53.1 73 62.1 52% 30.23 1023.5
18 11:53 NE 14 G 18 10.00 Fair CLR 71.1 53.1 53% 30.24 1023.6
18 10:53 NE 10 10.00 Fair CLR 70 53.1 55% 30.24 1023.5
18 09:53 N 12 G 17 10.00 Fair CLR 70 53.1 55% 30.23 1023.4
18 08:53 N 10 10.00 Fair CLR 68 53.1 59% 30.23 1023.4
18 07:53 N 10 10.00 Fair CLR 66 54 65% 30.22 1022.9
18 05:53 NW 6 10.00 Fair CLR 60.1 53.1 78% 30.19 1022.1
18 04:53 NW 8 10.00 Fair CLR 61 53.1 75% 30.18 1021.7
18 03:53 NW 7 10.00 A Few Clouds FEW050 62.1 54 75% 30.17 1021.3
18 02:53 N 10 10.00 Overcast SCT034 BKN045 OVC050 66 53.1 63% 30.15 1020.6
18 01:53 NE 9 10.00 Mostly Cloudy BKN034 BKN048 66 54 65% 30.16 1020.8
18 00:53 NE 13 10.00 Fair CLR 64.9 53.1 73.9 64.9 66% 30.16 1020.8
17 23:53 N 14 G 26 10.00 Mostly Cloudy SCT032 BKN060 66.9 54 63% 30.14 1020.1
17 22:53 NE 15 G 22 10.00 Overcast SCT024 BKN039 OVC070 66.9 57.9 73% 30.13 1019.7
17 21:53 N 7 10.00 A Few Clouds FEW070 66 51.1 59% 30.11 1019.2
17 20:53 N 7 10.00 Fair CLR 66.9 52 59% 30.09 1018.5
17 19:53 N 9 G 20 10.00 Mostly Cloudy BKN060 71.1 55 57% 30.08 1018.1
17 18:53 N 9 10.00 Mostly Cloudy SCT055 BKN070 73.9 54 80.1 73.9 50% 30.06 1017.5
17 17:53 NE 15 G 24 10.00 Mostly Cloudy BKN060 BKN075 73.9 55.9 54% 30.04 1016.9
17 16:53 NW 13 10.00 Fair CLR 77 52 42% 78 30.02 1016.4
17 15:53 NW 14 10.00 Partly Cloudy SCT060 79 53.1 41% 79 30.02 1016.1
17 14:53 NW 16 G 23 10.00 A Few Clouds FEW070 79 53.1 41% 79 30.03 1016.3
17 13:53 NW 13 G 23 10.00 A Few Clouds FEW065 79 52 39% 79 30.01 1015.7
17 12:53 N 13 10.00 A Few Clouds FEW060 78.1 52 79 68 40% 79 30 1015.5
17 11:53 N 8 10.00 A Few Clouds FEW055 78.1 57 48% 79 30 1015.3
17 10:53 NW 13 10.00 Fair CLR 78.1 55.9 47% 79 29.98 1014.9
17 09:53 NW 14 G 18 10.00 Fair CLR 77 57.9 52% 79 29.97 1014.5
17 08:53 NW 7 10.00 Fair CLR 73 61 66% 29.97 1014.3
17 07:53 NW 6 10.00 Fair CLR 71.1 62.1 73% 29.95 1014.0
17 06:53 NW 7 10.00 Fair CLR 68 61 71.1 66 78% 29.95 1013.8
17 05:53 W 7 10.00 Fair CLR 66 62.1 87% 29.94 1013.4
17 04:53 NW 5 10.00 Fair CLR 66.9 63 87% 29.92 1012.8
17 03:53 NW 7 10.00 Fair CLR 69.1 64.9 87% 29.9 1012.0
17 02:53 W 5 8.00 Fair CLR 70 66.9 90% 29.89 1011.7
17 01:53 W 3 6.00 Fog/Mist FEW110 70 66.9 90% 29.89 1011.7
17 00:53 W 5 6.00 Fog/Mist OVC110 71.1 68 73.9 69.1 90% 29.91 1012.3
16 23:53 W 6 7.00 Fair CLR 70 68 93% 29.9 1012.1
16 22:53 SW 3 9.00 A Few Clouds FEW005 70 66.9 90% 29.88 1011.5
16 21:53 S 5 10.00 Fair CLR 71.1 68 90% 29.88 1011.4
16 20:53 E 5 10.00 Mostly Cloudy BKN007 72 68 87% 29.87 1011.0
16 19:53 SE 6 10.00 Overcast SCT006 OVC075 73 69.1 87% 29.86 1010.8
16 18:53 SE 6 10.00 Partly Cloudy FEW008 SCT070 73.9 69.1 79 73 85% 29.85 1010.4
16 17:53 E 7 10.00 A Few Clouds FEW011 73.9 68 82% 29.84 1010.0
16 16:53 SE 6 10.00 Overcast FEW044 BKN065 OVC080 75.9 70 82% 77 29.84 1010.2
16 15:53 Calm 10.00 Partly Cloudy FEW009 FEW038 SCT055 77 70 79% 79 29.85 1010.4
16 14:53 E 10 10.00 Thunderstorm in Vicinity FEW012 SCT029 BKN050 75.9 69.1 79% 77 29.85 1010.4
16 13:53 E 7 10.00 Overcast BKN011 OVC014 75.9 69.1 79% 77 29.84 1009.8
16 12:53 E 9 10.00 Overcast SCT010 BKN017 OVC023 75.9 70 82 71.1 82% 77 29.83 1009.6
16 11:53 NE 9 10.00 Mostly Cloudy BKN017 BKN022 BKN029 78.1 71.1 79% 80 29.82 1009.3
16 10:53 NW 10 10.00 Mostly Cloudy BKN014 80.1 72 76% 84 29.81 1009.0
16 09:53 W 6 10.00 Partly Cloudy SCT038 SCT045 77 70 79% 79 29.8 1008.8
16 08:53 W 9 10.00 Overcast OVC025 75 69.1 82% 75 29.8 1008.6
16 07:53 W 10 10.00 Mostly Cloudy FEW011 SCT030 BKN042 73 68 84% 29.79 1008.1
16 06:53 W 9 10.00 Overcast FEW031 BKN050 OVC090 71.1 66.9 71.1 70 87% 29.76 1007.4
16 05:53 W 6 10.00 Mostly Cloudy FEW034 FEW060 BKN100 70 66.9 90% 29.76 1007.2
16 04:53 SW 8 10.00 Fair CLR 70 66 87% 29.74 1006.5
Date Time (cdt) Wind (mph) Vis. (mi.) Weather Sky Cond. Air Dwpt Max. Min. Relative Humidity Wind Chill (°F) Heat Index (°F) altimeter (in) sea level (mb) 1 hr 3 hr 6 hr
6 hour
Temperature (ºF) Pressure Precipitation (in)